| time (UTC) | temp C | wind direction | speed KPH | gust KPH | rain 1hr cm | rain 24hr cm | rain mn cm | humidity % | barometer mb |
| 20260502181922 | 9 | 142 | 0.0 | 0.0 | 0.00 | 0.00 | 0.00 | 100 | |
| 20260502163916 | 16 | 298 | 0.0 | 0.0 | 0.00 | 0.00 | 0.00 | 100 | |
| 20260502161915 | 15 | 281 | 0.0 | 4.8 | 0.00 | 0.00 | 0.00 | 100 | |
| 20260502151911 | 15 | 295 | 3.2 | 8.0 | 0.00 | 0.00 | 0.00 | 100 | |
| 20260502121901 | 17 | 348 | 4.8 | 6.4 | 0.00 | 0.00 | 0.00 | 100 | |
| 20260502115900 | 17 | 195 | 9.7 | 9.7 | 0.00 | 0.00 | 0.00 | 100 | |
| 20260502113859 | 16 | 209 | 0.0 | 6.4 | 0.00 | 0.00 | 0.00 | 100 | |
| 20260502111858 | 15 | 288 | 0.0 | 8.0 | 0.00 | 0.00 | 0.00 | 100 | |
| 20260502105856 | 14 | 296 | 8.0 | 9.7 | 0.00 | 0.00 | 0.00 | 100 | |
| 20260502103855 | 13 | 11 | 4.8 | 9.7 | 0.00 | 0.00 | 0.00 | 100 | |
| 20260502101854 | 13 | 307 | 1.6 | 12.9 | 0.00 | 0.00 | 0.00 | 100 | |
| 20260502065843 | 5 | 101 | 0.0 | 0.0 | 0.00 | 0.00 | 0.00 | 100 | |
| 20260502063841 | 4 | 101 | 0.0 | 0.0 | 0.00 | 0.00 | 0.00 | 100 | |
| 20260502061840 | 2 | 101 | 0.0 | 0.0 | 0.00 | 0.00 | 0.00 | 100 | |
| 20260502055839 | 2 | 101 | 0.0 | 0.0 | 0.00 | 0.00 | 0.00 | 100 | |
| 20260502053838 | 0 | 101 | 0.0 | 0.0 | 0.00 | 0.00 | 0.00 | 100 | |
| 20260502051837 | 0 | 101 | 0.0 | 0.0 | 0.00 | 0.00 | 0.00 | 100 | |
| 20260502045836 | -1 | 101 | 0.0 | 0.0 | 0.00 | 0.00 | 0.00 | 100 | |
| 20260502043911 | -2 | 101 | 0.0 | 0.0 | 0.00 | 0.00 | 0.00 | 100 | |
| 20260502043835 | -2 | 101 | 0.0 | 0.0 | 0.00 | 0.00 | 0.00 | 100 | |
| 20260502041834 | -2 | 101 | 0.0 | 0.0 | 0.00 | 0.00 | 0.00 | 100 | |
| 20260502035832 | -2 | 101 | 0.0 | 0.0 | 0.00 | 0.00 | 0.00 | 100 | |
| 20260502033832 | -2 | 101 | 0.0 | 0.0 | 0.00 | 0.00 | 0.00 | 100 | |
| 20260502031830 | -2 | 101 | 0.0 | 0.0 | 0.00 | 0.00 | 0.00 | 100 | |
| 20260502025829 | -2 | 101 | 0.0 | 0.0 | 0.00 | 0.00 | 0.00 | 100 | |
| 20260502023828 | -2 | 101 | 0.0 | 0.0 | 0.00 | 0.00 | 0.00 | 100 | |
| 20260502021827 | -2 | 98 | 0.0 | 0.0 | 0.00 | 0.00 | 0.00 | 100 | |
| 20260502015825 | -2 | 139 | 0.0 | 0.0 | 0.00 | 0.00 | 0.00 | 100 | |
| 20260502013824 | -2 | 139 | 0.0 | 0.0 | 0.00 | 0.00 | 0.00 | 100 | |
| 20260502011823 | -1 | 139 | 0.0 | 0.0 | 0.00 | 0.00 | 0.00 | 100 | |
| 20260502005822 | -1 | 139 | 0.0 | 0.0 | 0.00 | 0.00 | 0.00 | 100 | |
| 20260502003821 | 0 | 139 | 0.0 | 0.0 | 0.00 | 0.00 | 0.00 | 100 | |
| 20260502001820 | 0 | 139 | 0.0 | 0.0 | 0.00 | 0.00 | 0.00 | 100 | |
| 20260501235819 | 0 | 139 | 0.0 | 0.0 | 0.00 | 0.00 | 0.00 | 100 | |
| 20260501233817 | 0 | 120 | 0.0 | 3.2 | 0.00 | 0.00 | 0.00 | 100 | |
| 20260501231816 | 0 | 119 | 0.0 | 4.8 | 0.00 | 0.00 | 0.00 | 100 | |
| 20260501225816 | 0 | 160 | 0.0 | 0.0 | 0.00 | 0.00 | 0.00 | 100 | |
| 20260501223814 | 0 | 160 | 0.0 | 0.0 | 0.00 | 0.00 | 0.00 | 100 | |
| 20260501221813 | 0 | 160 | 0.0 | 0.0 | 0.00 | 0.00 | 0.00 | 100 | |
| 20260501215813 | 0 | 160 | 0.0 | 0.0 | 0.00 | 0.00 | 0.00 | 100 | |
| 20260501213811 | 1 | 160 | 0.0 | 0.0 | 0.00 | 0.00 | 0.00 | 100 | |
| 20260501211809 | 1 | 160 | 0.0 | 0.0 | 0.00 | 0.00 | 0.00 | 100 | |
| 20260501205808 | 1 | 160 | 0.0 | 0.0 | 0.00 | 0.00 | 0.00 | 100 | |
| 20260501203807 | 1 | 160 | 0.0 | 0.0 | 0.00 | 0.00 | 0.00 | 100 | |
| 20260501201806 | 2 | 160 | 0.0 | 0.0 | 0.00 | 0.00 | 0.00 | 100 | |
| 20260501195805 | 2 | 160 | 0.0 | 0.0 | 0.00 | 0.00 | 0.00 | 100 | |
| 20260501193804 | 2 | 160 | 0.0 | 0.0 | 0.00 | 0.00 | 0.00 | 100 | |
| 20260501191802 | 2 | 160 | 0.0 | 0.0 | 0.00 | 0.00 | 0.00 | 100 | |
| 20260501185801 | 3 | 160 | 0.0 | 0.0 | 0.00 | 0.00 | 0.00 | 100 | |
| 20260501183800 | 4 | 160 | 0.0 | 0.0 | 0.00 | 0.00 | 0.00 | 100 |